Regional Weather Roundup
Issued by NWS

Home | Current Version | Previous Version | Graphics & Text | Print | Product List | Glossary On
Versions: 1 2 3 4 5 6 7 8 9 10 11 12 13 14 15 16 17 18 19 20 21 22 23 24 25 26 27 28 29 30 31 32 33 34 35 36 37 38 39 40 41 42 43 44 45 46 47 48 49 50
102
ASUS43 KDTX 121401
RWRMI
MICHIGAN HOURLY REGIONAL WEATHER ROUNDUP
NATIONAL WEATHER SERVICE DETROIT/PONTIAC MI
900 AM EST TUE DEC 12 2017

NOTE: "FAIR" INDICATES FEW OR NO CLOUDS BELOW 12,000 FEET WITH NO
SIGNIFICANT WEATHER AND/OR OBSTRUCTION TO VISIBILITY.

MIZ047>049-052>055-059>063-066>070-074>076-081>083-121500-
SOUTHEAST LOWER MICHIGAN

CITY           SKY/WX    TMP DP  RH WIND       PRES   REMARKS
ADRIAN         PTCLDY    18   8  65 NW8G18    29.88R WCI   8
ALMA           CLOUDY    17   8  68 NW10G16   29.89R WCI   4
ANN ARBOR      MOCLDY    18   8  65 W13G25    29.85R WCI   5
BAD AXE        CLOUDY    14   4  63 NW22G29   29.78R WCI  -4
CARO           CLOUDY    16   6  64 NW23G33   29.82R WCI  -2
DETROIT CITY   MOCLDY    19   6  57 NW15G26   29.82R WCI   5
DETROIT        PTCLDY    21   8  57 NW16G24   29.84R WCI   7
FLINT          CLEAR     16   3  56 NW18G31   29.85R WCI   0
GROSSE ILE     MOCLDY    21  10  61 NW20G25   29.82S WCI   5
HILLSDALE      CLEAR     18   9  68 NW14G21   29.86R WCI   4
HOWELL         PTCLDY    17   8  70 NW14G20   29.84R WCI   2

CITY           SKY/WX    TMP DP  RH WIND       PRES   REMARKS
JACKSON        LGT SNOW  18  11  74 W12       29.87R WCI   5
LAMBERTVILLE   CLEAR     20   8  58 NW10G18   29.87R WCI   9
LANSING        PTCLDY    17  10  74 NW12      29.88R WCI   4
LAPEER         FAIR      16   5  61 NW9G18    29.81R WCI   4
MASON          PTCLDY    18   8  64 NW12      29.87R WCI   6
MT. CLEMENS    PTCLDY    18   5  56 NW18G25   29.79R WCI   2
PONTIAC        PTCLDY    16   7  67 NW21G33   29.80R BLWGSNOWWCI  -1
PORT HOPE        N/A     17   9  70 NW24G43   29.75R WCI  -1
PORT HURON     LGT SNOW  18   9  68 NW13G33   29.78R WCI   4
TRI CITIES     PTCLDY    15   2  56 NW17      29.86R WCI  -1
MIDLAND        FAIR      16   1  53 NW17G24   29.86S WCI   0
TROY           PTCLDY    20   8  59 NW22G29   29.84R WCI   3
SAGINAW HB     PTCLDY    16   3  57 NW14G22   29.85R WCI   1
$$
MIZ043>046-050>051-056>058-064>065-071>073-077>080-121500-
SOUTHWEST LOWER MICHIGAN

CITY           SKY/WX    TMP DP  RH WIND       PRES   REMARKS
BATTLE CREEK   CLEAR     18   8  65 NW13      29.91R WCI   5
BENTON HARBOR  LGT SNOW  23  14  68 VRB7G24   29.97S VSB 3/4 WCI  15
BIG RAPIDS     LGT SNOW  15   9  80 NW13G18   29.88R WCI   0
COLDWATER      PTCLDY    19   8  63 NW10      29.91R WCI   7
HOLLAND        SNOW      18  15  88 N13G18    29.96R VSB 1/2 WCI   5
GRAND RAPIDS   MOCLDY    19   9  65 NW18G25   29.92R WCI   4
IONIA          MOCLDY    19   9  66 NW9       29.89R WCI   8
KALAMAZOO      CLOUDY    19  12  74 N17       29.93R WCI   4
LUDINGTON      LGT SNOW  18   7  62 N14G28    29.95R WCI   4
MARSHALL       PTCLDY    18   6  60 NW7       29.89R WCI   8
MOUNT PLEASANT MOCLDY    16   7  68 N6        29.88R WCI   8
MUSKEGON       LGT SNOW  19  12  74 N18G30    29.97R VSB 1   WCI   4
SOUTH HAVEN    LGT SNOW  23  15  74 N17G31    29.96S WCI   9
$$
MIZ016>042-121500-
NORTHERN LOWER MICHIGAN

CITY           SKY/WX    TMP DP  RH WIND       PRES   REMARKS
ALPENA         LGT SNOW   9   4  80 NW20G29   29.79R VSB 1   WCI -10
BEAVER ISLAND  CLOUDY    12   2  65 N15G24    29.93S WCI  -4
BELLAIRE       CLOUDY    14   5  67 NW10G21   29.91R WCI   1
CADILLAC       LGT SNOW  12   8  81 N13G21    29.83R WCI  -3
CHARLEVOIX     SNOW      14   8  77 N20G30    29.94R VSB 1/2 WCI  -3
FRANKFORT      LGT SNOW  18  12  77 N15G28    29.94R VSB 3/4 WCI   3
GAYLORD        PTCLDY     6  -3  66 N8        29.82R WCI  -7
GRAYLING       LGT SNOW   9   2  72 NW13      29.84R WCI  -7
HARBOR SPRINGS CLOUDY    10  -1  60 NW17      29.90R WCI  -8
HOUGHTON LAKE  LGT SNOW  10   3  73 NW16G28   29.83R WCI  -7
MANISTEE       LGT SNOW  18   7  62 NW22G29   29.94R WCI   0
OSCODA         MOCLDY    10  -1  59 NW18G31   29.78R WCI  -8
PELLSTON       CLOUDY     9   1  70 N18G25    29.91R WCI -10
ROGERS CITY    CLOUDY     8   4  82 NW20G30   29.83R FOG     WCI -11
TRAVERSE CITY  FLURRIES  17   4  56 N14G35    29.90S WCI   3
$$
MIZ007>008-015-121500-
EASTERN UPPER MICHIGAN

CITY           SKY/WX    TMP DP  RH WIND       PRES   REMARKS
KINROSS        PTCLDY     0  -6  76 N14       29.90R WCI -19
MACKINAC ISLAN CLOUDY     8   2  76 N18G24    29.88S WCI -11
NEWBERRY         N/A      7   6  92 N9G17     29.91S WCI  -6
S. S. MARIE    CLEAR      0  -9  65 N13G20    29.90R WCI -18
MUNISING         N/A     18  12  77 N21G29    29.96R WCI   1
$$
MIZ004>006-011>014-085-121500-
CENTRAL UPPER MICHIGAN

CITY           SKY/WX    TMP DP  RH WIND       PRES   REMARKS
MANISTIQUE     LGT SNOW  10   5  80 N6        29.95S VSB 1   WCI   0
ESCANABA       CLEAR     10  -1  61 NW14      30.00S WCI  -6
MENOMINEE      FLURRIES  13   3  64 N10       30.06R WCI   0
SAWYER-GWINN   LGT SNOW   9   3  78 NW18      29.95S WCI -10
$$
MIZ001>003-009>011-084-121500-
WESTERN UPPER MICHIGAN

CITY           SKY/WX    TMP DP  RH WIND       PRES   REMARKS
IRON MOUNTAIN  CLOUDY    10   2  69 NW10      29.99S WCI  -4
HOUGHTON       LGT SNOW  10   3  73 NW10      30.00S WCI  -4
COPPER HARBOR    N/A     14   5  67 NE16G26   30.03S WCI  -2
IRONWOOD       FLURRIES   9   5  84 W10       30.07S WCI  -5
$$

ABBREVIATIONS USED IN REMARKS
   TC - TEMPERATURE IN CELSIUS
  WCI - WIND CHILL INDEX
   HX - HEAT INDEX
  VSB - VISIBILITY





USA.gov is the U.S. government's official web portal to all federal, state and local government web resources and services.